| time (UTC) | temp C | wind direction | speed KPH | gust KPH | rain 1hr cm | rain 24hr cm | rain mn cm | humidity % | barometer mb |
| 20260504032506 | 10 | 133 | 3.2 | 11.3 | 0.00 | 0.38 | 0.38 | 67 | 1012.9 |
| 20260504032005 | 10 | 125 | 3.2 | 11.3 | 0.00 | 0.38 | 0.38 | 67 | 1013.0 |
| 20260504031505 | 10 | 135 | 3.2 | 11.3 | 0.00 | 0.38 | 0.38 | 67 | 1013.1 |
| 20260504031006 | 10 | 156 | 3.2 | 8.0 | 0.00 | 0.38 | 0.38 | 67 | 1013.1 |
| 20260504030506 | 10 | 139 | 1.6 | 4.8 | 0.00 | 0.38 | 0.38 | 67 | 1013.1 |
| 20260504030005 | 10 | 140 | 3.2 | 4.8 | 0.00 | 0.38 | 0.38 | 68 | 1013.3 |
| 20260504025505 | 10 | 151 | 1.6 | 4.8 | 0.00 | 0.38 | 0.38 | 67 | 1013.3 |
| 20260504025005 | 10 | 127 | 1.6 | 3.2 | 0.00 | 0.38 | 0.38 | 67 | 1013.4 |
| 20260504024505 | 10 | 131 | 1.6 | 3.2 | 0.00 | 0.38 | 0.38 | 66 | 1013.4 |
| 20260504024005 | 10 | 131 | 1.6 | 3.2 | 0.00 | 0.38 | 0.38 | 66 | 1013.4 |
| 20260504022505 | 11 | 129 | 1.6 | 3.2 | 0.00 | 0.38 | 0.38 | 64 | 1013.4 |
| 20260504022006 | 11 | 138 | 1.6 | 4.8 | 0.00 | 0.38 | 0.38 | 64 | 1013.4 |
| 20260504021506 | 11 | 139 | 1.6 | 4.8 | 0.00 | 0.38 | 0.38 | 63 | 1013.5 |
| 20260504020505 | 11 | 149 | 1.6 | 4.8 | 0.00 | 0.38 | 0.38 | 62 | 1013.4 |
| 20260504015504 | 11 | 135 | 3.2 | 4.8 | 0.00 | 0.38 | 0.38 | 61 | 1013.4 |
| 20260504015005 | 11 | 141 | 3.2 | 3.2 | 0.00 | 0.38 | 0.38 | 61 | 1013.4 |
| 20260504014505 | 12 | 152 | 1.6 | 3.2 | 0.00 | 0.38 | 0.38 | 60 | 1013.2 |
| 20260504014005 | 12 | 168 | 1.6 | 4.8 | 0.00 | 0.38 | 0.38 | 59 | 1013.2 |
| 20260504013505 | 12 | 172 | 1.6 | 4.8 | 0.00 | 0.38 | 0.38 | 58 | 1013.3 |
| 20260504012506 | 12 | 218 | 1.6 | 3.2 | 0.00 | 0.38 | 0.38 | 56 | 1013.3 |
| 20260504012006 | 12 | 271 | 1.6 | 3.2 | 0.00 | 0.38 | 0.38 | 55 | 1013.4 |
| 20260504011505 | 13 | 291 | 0.0 | 1.6 | 0.00 | 0.38 | 0.38 | 53 | 1013.4 |
| 20260504011005 | 13 | 291 | 0.0 | 1.6 | 0.00 | 0.38 | 0.38 | 52 | 1013.4 |
| 20260504010506 | 13 | 291 | 0.0 | 1.6 | 0.00 | 0.38 | 0.38 | 52 | 1013.4 |
| 20260504010004 | 14 | 291 | 0.0 | 1.6 | 0.00 | 0.38 | 0.38 | 50 | 1013.3 |
| 20260504005505 | 15 | 303 | 0.0 | 3.2 | 0.00 | 0.38 | 0.38 | 48 | 1013.3 |
| 20260504003505 | 16 | 204 | 3.2 | 12.9 | 0.00 | 0.38 | 0.38 | 44 | 1012.8 |
| 20260504003006 | 16 | 231 | 4.8 | 12.9 | 0.00 | 0.38 | 0.38 | 44 | 1012.7 |
| 20260504002505 | 16 | 233 | 4.8 | 12.9 | 0.00 | 0.38 | 0.38 | 44 | 1012.7 |
| 20260504001005 | 16 | 245 | 6.4 | 14.5 | 0.00 | 0.38 | 0.38 | 42 | 1012.7 |
| 20260504000505 | 16 | 231 | 4.8 | 16.1 | 0.00 | 0.38 | 0.38 | 42 | 1012.7 |
| 20260503235506 | 17 | 217 | 8.0 | 16.1 | 0.00 | 0.38 | 0.38 | 41 | 1012.8 |
| 20260503235005 | 17 | 285 | 6.4 | 16.1 | 0.00 | 0.38 | 0.38 | 41 | 1012.7 |
| 20260503234504 | 17 | 284 | 4.8 | 25.7 | 0.00 | 0.38 | 0.38 | 41 | 1012.5 |
| 20260503234006 | 17 | 196 | 11.3 | 25.7 | 0.00 | 0.38 | 0.38 | 40 | 1012.7 |
| 20260503233505 | 17 | 265 | 9.7 | 24.1 | 0.00 | 0.38 | 0.38 | 40 | 1012.7 |
| 20260503233004 | 17 | 255 | 11.3 | 24.1 | 0.00 | 0.38 | 0.38 | 40 | 1012.8 |
| 20260503232504 | 17 | 240 | 4.8 | 16.1 | 0.00 | 0.38 | 0.38 | 41 | 1012.7 |
| 20260503231504 | 17 | 234 | 9.7 | 19.3 | 0.00 | 0.38 | 0.38 | 40 | 1012.7 |
| 20260503230505 | 17 | 248 | 8.0 | 27.4 | 0.00 | 0.38 | 0.38 | 39 | 1012.8 |
| 20260503230004 | 17 | 234 | 12.9 | 20.9 | 0.00 | 0.38 | 0.38 | 39 | 1012.9 |
| 20260503225504 | 17 | 226 | 6.4 | 24.1 | 0.00 | 0.38 | 0.38 | 39 | 1013.0 |
| 20260503225004 | 17 | 237 | 9.7 | 25.7 | 0.00 | 0.38 | 0.38 | 39 | 1013.2 |
| 20260503224505 | 17 | 247 | 9.7 | 25.7 | 0.00 | 0.38 | 0.38 | 39 | 1013.3 |
| 20260503224004 | 17 | 251 | 8.0 | 22.5 | 0.00 | 0.38 | 0.38 | 38 | 1013.6 |
| 20260503223505 | 18 | 245 | 9.7 | 22.5 | 0.00 | 0.38 | 0.38 | 37 | 1013.6 |
| 20260503223004 | 18 | 217 | 4.8 | 19.3 | 0.00 | 0.38 | 0.38 | 40 | 1013.6 |
| 20260503221505 | 18 | 227 | 8.0 | 20.9 | 0.00 | 0.38 | 0.38 | 38 | 1013.9 |
| 20260503221005 | 18 | 220 | 3.2 | 20.9 | 0.00 | 0.38 | 0.38 | 38 | 1014.0 |
| 20260503220004 | 18 | 215 | 6.4 | 29.0 | 0.00 | 0.38 | 0.38 | 37 | 1013.9 |
| 20260503215506 | 18 | 266 | 14.5 | 29.0 | 0.00 | 0.38 | 0.38 | 36 | 1014.0 |
| 20260503215004 | 18 | 262 | 4.8 | 27.4 | 0.00 | 0.38 | 0.38 | 37 | 1014.0 |
| 20260503214504 | 18 | 255 | 14.5 | 27.4 | 0.00 | 0.38 | 0.38 | 35 | 1014.3 |
| 20260503214004 | 18 | 238 | 9.7 | 29.0 | 0.00 | 0.38 | 0.38 | 36 | 1014.5 |
| 20260503213004 | 18 | 275 | 16.1 | 29.0 | 0.00 | 0.38 | 0.38 | 36 | 1014.7 |
| 20260503212504 | 18 | 262 | 9.7 | 27.4 | 0.00 | 0.38 | 0.38 | 36 | 1014.7 |
| 20260503212004 | 18 | 268 | 14.5 | 27.4 | 0.00 | 0.38 | 0.38 | 35 | 1015.0 |
| 20260503211504 | 18 | 247 | 14.5 | 27.4 | 0.00 | 0.38 | 0.38 | 35 | 1015.0 |
| 20260503210504 | 18 | 301 | 9.7 | 20.9 | 0.00 | 0.38 | 0.38 | 36 | 1014.9 |
| 20260503210005 | 18 | 250 | 6.4 | 24.1 | 0.00 | 0.38 | 0.38 | 36 | 1014.6 |
| 20260503205504 | 18 | 226 | 9.7 | 24.1 | 0.00 | 0.38 | 0.38 | 34 | 1014.7 |
| 20260503205004 | 18 | 281 | 8.0 | 22.5 | 0.00 | 0.38 | 0.38 | 35 | 1014.8 |
| 20260503204004 | 18 | 233 | 9.7 | 22.5 | 0.00 | 0.38 | 0.38 | 34 | 1015.1 |
| 20260503203505 | 18 | 263 | 11.3 | 24.1 | 0.00 | 0.38 | 0.38 | 33 | 1015.2 |
| 20260503203004 | 18 | 281 | 14.5 | 24.1 | 0.00 | 0.38 | 0.38 | 33 | 1015.3 |
| 20260503202506 | 18 | 287 | 11.3 | 24.1 | 0.00 | 0.38 | 0.38 | 36 | 1015.4 |
| 20260503202005 | 17 | 265 | 8.0 | 24.1 | 0.00 | 0.38 | 0.38 | 34 | 1015.5 |
| 20260503201004 | 17 | 241 | 6.4 | 19.3 | 0.00 | 0.38 | 0.38 | 34 | 1015.6 |
| 20260503200504 | 18 | 286 | 8.0 | 16.1 | 0.00 | 0.38 | 0.38 | 35 | 1015.8 |
| 20260503200004 | 18 | 299 | 8.0 | 20.9 | 0.00 | 0.38 | 0.38 | 32 | 1015.8 |
| 20260503195504 | 18 | 227 | 11.3 | 24.1 | 0.00 | 0.38 | 0.38 | 33 | 1016.0 |
| 20260503195004 | 18 | 221 | 9.7 | 24.1 | 0.00 | 0.38 | 0.38 | 34 | 1016.2 |
| 20260503194504 | 18 | 243 | 8.0 | 24.1 | 0.00 | 0.38 | 0.38 | 34 | 1016.2 |
| 20260503194004 | 18 | 233 | 8.0 | 25.7 | 0.00 | 0.38 | 0.38 | 33 | 1016.3 |
| 20260503193505 | 18 | 305 | 9.7 | 25.7 | 0.00 | 0.38 | 0.38 | 33 | 1016.5 |
| 20260503192505 | 17 | 260 | 9.7 | 22.5 | 0.00 | 0.38 | 0.38 | 33 | 1016.9 |
| 20260503192004 | 17 | 300 | 9.7 | 22.5 | 0.00 | 0.38 | 0.38 | 34 | 1016.8 |
| 20260503191504 | 17 | 262 | 4.8 | 20.9 | 0.00 | 0.38 | 0.38 | 35 | 1017.0 |
| 20260503191004 | 17 | 258 | 11.3 | 20.9 | 0.00 | 0.38 | 0.38 | 34 | 1017.2 |
| 20260503190504 | 17 | 304 | 8.0 | 19.3 | 0.00 | 0.38 | 0.38 | 37 | 1017.2 |
| 20260503185505 | 17 | 214 | 6.4 | 29.0 | 0.00 | 0.38 | 0.38 | 35 | 1017.4 |
| 20260503184504 | 17 | 252 | 11.3 | 20.9 | 0.00 | 0.38 | 0.38 | 32 | 1017.4 |
| 20260503184005 | 17 | 265 | 8.0 | 19.3 | 0.00 | 0.38 | 0.38 | 35 | 1017.5 |
| 20260503183505 | 17 | 201 | 4.8 | 22.5 | 0.00 | 0.38 | 0.38 | 37 | 1017.7 |
| 20260503183004 | 16 | 242 | 9.7 | 25.7 | 0.00 | 0.38 | 0.38 | 33 | 1017.8 |
| 20260503182504 | 16 | 246 | 11.3 | 25.7 | 0.00 | 0.38 | 0.38 | 34 | 1017.9 |
| 20260503182004 | 16 | 218 | 9.7 | 20.9 | 0.00 | 0.38 | 0.38 | 34 | 1018.0 |
| 20260503181506 | 16 | 233 | 8.0 | 24.1 | 0.00 | 0.38 | 0.38 | 32 | 1018.0 |
| 20260503181005 | 16 | 280 | 8.0 | 32.2 | 0.00 | 0.38 | 0.38 | 34 | 1018.2 |
| 20260503180504 | 16 | 288 | 16.1 | 32.2 | 0.00 | 0.38 | 0.38 | 32 | 1018.2 |
| 20260503180005 | 16 | 238 | 11.3 | 25.7 | 0.00 | 0.38 | 0.38 | 34 | 1018.2 |
| 20260503175504 | 16 | 260 | 9.7 | 22.5 | 0.00 | 0.38 | 0.38 | 32 | 1018.3 |
| 20260503175004 | 16 | 218 | 8.0 | 22.5 | 0.00 | 0.38 | 0.38 | 37 | 1018.4 |
| 20260503174503 | 16 | 252 | 6.4 | 22.5 | 0.00 | 0.38 | 0.38 | 34 | 1018.4 |
| 20260503174004 | 16 | 237 | 14.5 | 27.4 | 0.00 | 0.38 | 0.38 | 31 | 1018.5 |
| 20260503173504 | 16 | 238 | 14.5 | 27.4 | 0.00 | 0.38 | 0.38 | 33 | 1018.6 |
| 20260503173006 | 16 | 247 | 9.7 | 19.3 | 0.00 | 0.38 | 0.38 | 31 | 1018.6 |
| 20260503172505 | 16 | 277 | 8.0 | 25.7 | 0.00 | 0.38 | 0.38 | 45 | 1018.7 |
| 20260503172004 | 16 | 270 | 11.3 | 29.0 | 0.00 | 0.38 | 0.38 | 43 | 1018.7 |
| 20260503171004 | 16 | 218 | 4.8 | 19.3 | 0.00 | 0.38 | 0.38 | 46 | 1018.9 |
| 20260503170505 | 15 | 262 | 8.0 | 27.4 | 0.00 | 0.38 | 0.38 | 49 | 1018.9 |
| 20260503151004 | 26 | 294 | 11.3 | 20.9 | 0.08 | 0.08 | 0.08 | 32 | 1020.3 |
| 20260503150504 | 22 | 231 | 9.7 | 20.9 | 0.05 | 0.05 | 0.05 | 38 | 1020.3 |
| 20260503131007 | 7 | 143 | 0.0 | 3.2 | 0.00 | 0.00 | 0.00 | 93 | 1020.4 |
| 20260503130506 | 6 | 137 | 1.6 | 3.2 | 0.00 | 0.00 | 0.00 | 94 | 1020.3 |
| 20260503090506 | 0 | 336 | 0.0 | 0.0 | 0.00 | 0.00 | 0.00 | 93 | 1019.3 |
| 20260503081505 | 0 | 336 | 0.0 | 1.6 | 0.00 | 0.00 | 0.00 | 93 | 1019.1 |
| 20260503080506 | 0 | 336 | 0.0 | 1.6 | 0.00 | 0.00 | 0.00 | 93 | 1019.1 |
| 20260503072505 | 0 | 336 | 0.0 | 0.0 | 0.00 | 0.00 | 0.00 | 92 | 1019.0 |
| 20260503072006 | 0 | 336 | 0.0 | 0.0 | 0.00 | 0.00 | 0.00 | 92 | 1019.0 |
| 20260503071006 | 0 | 336 | 0.0 | 0.0 | 0.00 | 0.00 | 0.00 | 92 | 1019.0 |
| 20260503055005 | 1 | 336 | 0.0 | 0.0 | 0.00 | 0.00 | 0.00 | 92 | 1019.2 |
| 20260503054506 | 1 | 336 | 0.0 | 0.0 | 0.00 | 0.00 | 0.00 | 92 | 1019.4 |
| 20260503054006 | 1 | 336 | 0.0 | 0.0 | 0.00 | 0.00 | 0.00 | 92 | 1019.4 |
| 20260503053507 | 1 | 336 | 0.0 | 0.0 | 0.00 | 0.00 | 0.00 | 92 | 1019.2 |
| 20260503053006 | 1 | 336 | 0.0 | 0.0 | 0.00 | 0.00 | 0.00 | 92 | 1019.3 |
| 20260503052506 | 1 | 336 | 0.0 | 1.6 | 0.00 | 0.00 | 0.00 | 91 | 1019.3 |
| 20260503052005 | 1 | 336 | 0.0 | 1.6 | 0.00 | 0.00 | 0.00 | 91 | 1019.2 |
| 20260503050006 | 2 | 336 | 0.0 | 0.0 | 0.00 | 0.00 | 0.00 | 91 | 1019.1 |
| 20260503045505 | 2 | 336 | 0.0 | 0.0 | 0.00 | 0.00 | 0.00 | 91 | 1019.1 |
| 20260503045006 | 2 | 336 | 0.0 | 0.0 | 0.00 | 0.00 | 0.00 | 91 | 1019.1 |
| 20260503044507 | 2 | 336 | 0.0 | 1.6 | 0.00 | 0.00 | 0.00 | 91 | 1019.1 |
| 20260503044006 | 2 | 336 | 0.0 | 1.6 | 0.00 | 0.00 | 0.00 | 91 | 1019.0 |
| 20260503043506 | 2 | 336 | 0.0 | 1.6 | 0.00 | 0.00 | 0.00 | 91 | 1019.1 |
| 20260503043007 | 2 | 336 | 0.0 | 1.6 | 0.00 | 0.00 | 0.00 | 91 | 1019.1 |
| 20260503042505 | 2 | 336 | 0.0 | 1.6 | 0.00 | 0.00 | 0.00 | 91 | 1019.1 |
| 20260503042005 | 3 | 336 | 0.0 | 1.6 | 0.00 | 0.00 | 0.00 | 91 | 1019.1 |
| 20260503041507 | 3 | 336 | 0.0 | 0.0 | 0.00 | 0.00 | 0.00 | 91 | 1019.0 |
| 20260503041006 | 3 | 336 | 0.0 | 0.0 | 0.00 | 0.00 | 0.00 | 90 | 1019.1 |
| 20260503040505 | 3 | 336 | 0.0 | 0.0 | 0.00 | 0.00 | 0.00 | 90 | 1019.0 |
| 20260503040005 | 3 | 336 | 0.0 | 0.0 | 0.00 | 0.00 | 0.00 | 90 | 1019.0 |
| 20260503035505 | 3 | 336 | 0.0 | 0.0 | 0.00 | 0.00 | 0.00 | 90 | 1019.1 |
| 20260503035005 | 3 | 336 | 0.0 | 0.0 | 0.00 | 0.00 | 0.00 | 90 | 1019.1 |
| 20260503034505 | 3 | 336 | 0.0 | 0.0 | 0.00 | 0.00 | 0.00 | 90 | 1019.1 |
| 20260503034006 | 3 | 336 | 0.0 | 0.0 | 0.00 | 0.00 | 0.00 | 90 | 1019.0 |
| 20260503033007 | 3 | 336 | 0.0 | 0.0 | 0.00 | 0.00 | 0.00 | 89 | 1019.0 |